Flag for Estonia Weather past 2 weeks in Kohtla-Järve, Estonia

Now
66 °F

Scattered clouds.


Feels Like: 66 °F
Forecast: 56 / 66 °F
Wind: 9 mph from Southwest

Location: Johvi

Current Time: Aug 21, 2014 at 5:26:17 PM

Latest Report: Aug 21, 2014 at 4:00 PM


Visibility: 25 mi

Pressure: 29.82 "Hg

Humidity: 49%

Dew point: 46 °F

Location of Kohtla-JärveLocation

Historic Weather in Kohtla-Järve — Graph

°F

Kohtla-Järve temperature yesterday

Maximum temperature yesterday: 68 °F (at 4:00 PM)
Minimum temperature yesterday: 51 °F (at 5:00 AM)
Average temperature yesterday: 58 °F

Past Weeks' High & Low Weather Summary

 TemperatureHumidityPressure
High85 °F (Aug 7, 1:00 PM)100% (Aug 10, 1:00 AM)30.05 "Hg (Aug 10, 1:00 AM)
Low51 °F (Aug 17, 4:00 AM)33% (Aug 6, 4:00 PM)29.58 "Hg (Aug 15, 1:00 AM)
Average64 °F78%29.77 "Hg
* Reported Aug 6 4:00 PM — Aug 21 4:00 PM, Kohtla-Järve, Weather by CustomWeather, © 2014

Note: Actual official high and low records may vary slightly from our data, if they occured in-between our weather recording intervals... More about our weather records

Advertising

Kohtla-Järve weather history for previous 24 hours

 ConditionsComfort  
Time TempWeatherWind HumidityBarometerVisibility
4:00 PM
Aug 21
66 °FScattered clouds.9 mph49%29.82 "Hg25 mi
3:00 PM65 °FPartly sunny.8 mph56%29.82 "Hg22 mi
2:00 PM66 °FPartly sunny.10 mph59%29.82 "Hg22 mi
1:00 PM62 °FOvercast.9 mph67%29.81 "Hg18 mi
12:00 PM64 °FPartly sunny.8 mph67%29.80 "Hg22 mi
11:00 AM63 °FOvercast.10 mph70%29.78 "Hg22 mi
10:00 AM60 °FOvercast.8 mph79%29.77 "Hg16 mi
9:00 AM59 °FOvercast.8 mph85%29.75 "Hg16 mi
7:00 AM55 °FOvercast.7 mph90%29.72 "Hg14 mi
6:00 AM54 °FOvercast.7 mph90%29.71 "Hg18 mi
5:00 AM53 °FOvercast.8 mph91%29.70 "Hg25 mi
4:00 AM53 °FOvercast.9 mph89%29.69 "Hg28 mi
3:00 AM53 °FPassing clouds.9 mph87%29.69 "Hg31 mi
2:00 AM53 °FOvercast.8 mph87%29.69 "Hg31 mi
1:00 AM53 °FClear.7 mph88%29.70 "Hg31 mi
12:00 AM54 °FClear.7 mph89%29.69 "Hg31 mi
11:00 PM
Aug 20
54 °FClear.6 mph88%29.70 "Hg31 mi
10:00 PM54 °FOvercast.6 mph88%29.70 "Hg31 mi
9:00 PM54 °FPassing clouds.5 mph90%29.70 "Hg31 mi
8:00 PM57 °FLots of rain. Overcast.7 mph84%29.70 "Hg8 mi
7:00 PM58 °FSunny.6 mph84%29.69 "Hg31 mi
6:00 PM55 °FRain showers. Overcast.3 mph88%29.69 "Hg31 mi
5:00 PM61 °FOvercast.9 mph58%29.70 "Hg28 mi
Weather by CustomWeather, © 2014

See weather overviewHow to use our weather pages